Regional Weather Roundup
Issued by NWS Cleveland, OH

Home | Current Version | Previous Version | Graphics & Text | Print | Product List | Glossary On
Versions: 1 2 3 4 5 6 7 8 9 10 11 12 13 14 15 16 17 18 19 20 21 22 23 24 25 26 27 28 29 30 31 32 33 34 35 36 37 38 39 40 41 42 43 44 45 46 47 48 49 50
000
ASUS41 KCLE 232112
RWRCLE
OHIO REGIONAL WEATHER ROUNDUP
NATIONAL WEATHER SERVICE WILMINGTON, OH
500 PM EDT SAT JUL 23 2016

NOTE: "FAIR" INDICATES FEW OR NO CLOUDS BELOW 12,000 FEET WITH NO
SIGNIFICANT WEATHER AND/OR OBSTRUCTIONS TO VISIBILITY.

OHZ001>008-015>018-024>027-034-035-043-044-232200-
   NORTHWEST OHIO

CITY           SKY/WX    TMP DP  RH WIND       PRES   REMARKS
DEFIANCE       FAIR      93  64  38 NW5       29.96F HX  94
FINDLAY        FAIR      90  69  50 NW5       29.97F HX  94
TOLEDO EXPRESS FAIR      90  69  50 N3        29.96F HX  94
TOLEDO EXEC    FAIR      93  65  39 NE7       29.96F HX  95
LIMA           PTSUNNY   90  73  57 CALM      29.99S HX  98
$$

OHZ009>014-019>023-028>033-038-089-232200-
   NORTHEAST OHIO

CITY           SKY/WX    TMP DP  RH WIND       PRES   REMARKS
CLE-HOPKINS    FAIR      93  60  33 N9        29.99S HX  93
CLE-LAKEFRONT  FAIR      85  74  69 N6        29.96F HX  92
CUY CO. ARPT   MOSUNNY   90  73  58 NW10      29.99S HX  98
LORAIN-ELYRIA  FAIR      89  67  47 N9        29.98F HX  92
ASHTABULA      FAIR      85  69  58 N8        30.00S
AKRON-CANTON   FAIR      93  67  42 NW5       29.97F HX  96
WOOSTER        FAIR      90  70  51 N9        29.98F HX  95
MANSFIELD      FAIR      91  69  48 W8        30.00S HX  96
YOUNGSTOWN     FAIR      91  61  36 NW6       29.97F HX  91
$$

OHZ042-051>053-060>062-070>072-077>081-232200-
  SOUTHWEST OHIO

CITY           SKY/WX    TMP DP  RH WIND       PRES   REMARKS
CINC-COVINGTON FAIR      93  72  50 W7        29.99F HX 101
CINC-LUNKEN    FAIR      89  73  59 VRB3      29.96F HX  97
HAMILTON       FAIR      93  71  48 VRB7      29.98F HX 100
DAYTON         PTSUNNY   89  71  55 W9        30.01S HX  95
WRIGHT-PAT AFB MOSUNNY   91  71  52 W10       29.99S HX  97
DAYTON GENERAL FAIR      91  70  49 W7G18     29.99F HX  96
WILMINGTON     FAIR      90  72  55 W8        29.99F HX  97
$$

OHZ036-037-039>041-045>050-054>059-063>069-073>076-082>088-232200-
  CENTRAL AND SOUTHEAST OHIO

CITY           SKY/WX    TMP DP  RH WIND       PRES   REMARKS
COLUMBUS       PTSUNNY   90  71  53 W9        29.97F HX  96
OSU AIRPORT    FAIR      90  73  57 W8G17     29.98F HX  98
BOLTON FIELD   MOSUNNY   90  73  58 W7        29.99F HX  98
RICKENBACK AFB FAIR      90  71  53 W9        29.97F HX  96
NEWARK         FAIR      89  71  55 W8        29.98F HX  95
MARION         FAIR      90  69  50 VRB6      30.00S HX  94
LANCASTER      FAIR      89  74  60 NW8       29.99F HX  98
ZANESVILLE     FAIR      96  70  42 W10       29.97F HX 102
NEW PHILLY     FAIR      96  68  39 VRB7      29.96F HX 101
$$




USA.gov is the U.S. government's official web portal to all federal, state and local government web resources and services.